Wind_Speed
24 25 27 29 31 33 34 36 38 39 41 42 42 43 44 44 44 43 43 43 41 40 38 37 36 36 35 35 35 35 34 33 33 32 30 30 29 28 26 25 23 22 22
24 25 26 28 30 32 33 35 37 38 40 41 42 43 44 44 44 43 42 41 40 38 37 34 33 34 34 33 35 36 36 34 33 32 31 30 29 28 27 26 25 24 23
26 27 28 29 30 32 33 35 37 38 40 41 42 43 43 43 44 43 41 40 39 37 35 33 31 31 32 33 34 34 35 35 34 33 32 31 30 29 28 28 26 26 25
27 28 29 30 31 33 35 36 37 39 40 41 42 43 42 42 43 43 42 41 39 38 36 34 33 31 31 33 34 34 34 34 33 34 34 32 31 31 29 29 28 27 26
30 31 32 33 34 36 37 38 39 39 40 41 42 42 42 42 42 41 40 40 40 40 37 36 35 34 33 32 33 34 34 34 34 35 35 35 34 33 31 29 30 29 28
33 34 35 36 36 37 37 38 39 40 41 41 42 42 41 41 41 42 41 41 40 40 39 38 38 37 36 35 34 34 36 37 37 36 35 35 36 35 34 32 32 30 29
36 36 37 37 36 37 38 38 39 40 40 41 41 41 42 42 42 42 42 42 41 41 41 39 38 39 38 38 37 36 37 38 38 37 37 36 36 36 35 35 34 32 31
37 37 38 38 38 38 38 38 39 39 39 40 41 42 43 44 43 43 44 44 43 43 44 43 41 41 40 40 39 38 39 39 39 40 40 39 38 37 37 36 35 34 33
37 38 38 38 38 38 38 39 39 39 39 40 41 43 44 44 44 44 45 45 46 46 46 46 45 45 44 43 43 43 43 43 43 43 43 42 41 40 39 39 38 37 36
37 37 37 38 38 38 38 39 40 40 41 41 42 43 43 44 45 46 47 48 48 49 49 49 48 47 47 47 48 47 46 47 48 48 47 46 45 44 43 42 41 40 39
37 37 38 38 38 39 39 40 41 41 41 42 43 43 44 45 46 47 48 49 49 50 50 50 50 50 50 50 50 50 50 51 51 52 51 50 49 48 46 45 45 44 42
37 38 38 38 38 39 40 40 41 41 42 43 43 44 46 47 47 48 49 50 50 50 51 51 51 51 51 52 53 53 54 54 54 55 56 55 54 53 51 49 48 47 46
37 38 38 38 39 39 40 40 41 42 43 44 45 46 47 47 48 48 48 48 48 49 50 50 51 51 51 52 54 55 55 57 57 57 58 58 58 57 56 54 52 50 49
37 38 38 38 39 39 39 40 41 42 43 44 45 46 46 46 46 45 44 44 44 45 45 47 49 49 50 51 53 54 55 57 58 58 59 60 60 59 59 58 56 54 53
38 38 39 39 39 39 40 41 43 43 44 45 45 45 45 44 43 42 41 41 41 41 42 44 44 46 47 48 51 53 54 56 57 58 59 60 61 61 61 60 59 58 57
38 39 39 40 40 40 41 42 43 44 44 44 45 44 44 42 41 40 39 38 38 39 39 40 40 41 43 45 47 50 51 53 54 55 57 59 60 61 61 61 61 60 59
39 40 41 41 41 41 42 42 43 44 44 44 44 43 42 40 38 37 36 36 37 37 36 35 35 35 38 40 42 45 48 50 52 53 55 58 58 59 60 60 61 61 60
40 41 41 41 41 41 41 42 43 44 44 43 42 41 40 38 36 35 34 33 32 31 30 30 30 30 31 33 35 38 42 44 46 48 51 54 56 57 57 58 60 60 60
41 41 41 40 40 41 41 42 44 43 43 42 41 40 38 37 34 33 32 29 28 27 26 25 24 25 26 28 29 31 35 38 40 42 44 47 50 53 54 56 56 58 59
41 41 41 40 40 41 41 43 43 42 42 41 40 38 37 35 33 31 29 27 25 23 21 20 19 19 20 22 24 25 28 31 35 37 40 41 44 47 49 50 52 54 55
41 41 41 40 41 41 41 42 42 42 41 40 38 37 35 33 31 28 26 23 20 18 16 15 14 14 15 17 19 21 23 25 29 31 34 36 38 41 43 46 47 49 51
42 41 41 40 41 41 41 41 41 41 40 38 37 36 33 31 29 26 23 20 17 15 13 12 10 11 12 14 15 17 19 21 24 27 29 31 33 35 37 39 42 44 46
42 42 41 40 41 40 41 40 40 40 39 38 36 34 32 30 28 25 22 19 16 14 13 11 9 9 10 12 13 14 16 18 20 22 25 26 27 29 31 33 36 38 41
42 42 41 40 40 39 40 39 40 39 39 37 35 34 31 29 27 25 23 20 17 15 12 10 9 7 6 7 8 11 12 14 15 18 21 23 24 26 28 30 32 34 36
42 41 41 40 39 39 39 39 39 38 37 36 35 33 31 29 28 25 23 20 17 15 13 11 8 6 4 4 5 7 10 12 14 15 18 20 21 23 25 27 28 30 32
42 41 40 40 39 39 38 38 38 37 36 35 34 32 30 29 28 26 23 21 19 15 13 11 9 7 5 3 3 4 7 9 11 13 16 17 19 21 23 24 26 28 30
Wind_Direction
288 285 283 281 281 281 282 282 283 282 282 283 284 285 286 287 287 289 290 291 290 287 281 278 272 271 269 267 264 263 261 259 260 255 250 248 245 244 244 242 240 238 238
294 291 288 286 284 284 283 283 283 283 283 284 285 285 285 285 286 287 289 289 290 288 284 280 276 269 266 265 264 261 258 256 254 250 248 245 241 241 241 239 238 236 236
299 296 293 290 288 287 286 286 286 286 286 286 286 287 286 287 286 286 286 287 287 288 285 281 276 271 266 264 261 257 255 254 251 246 243 241 239 240 239 238 237 236 234
304 301 299 296 293 292 290 289 288 288 288 287 287 288 287 287 287 286 285 284 284 283 282 279 276 272 266 263 259 255 252 248 244 239 239 239 238 238 238 237 236 236 234
306 304 302 300 298 296 294 293 291 290 290 289 289 289 289 288 287 286 285 283 282 282 281 279 276 272 267 263 260 254 249 242 240 240 239 237 237 237 236 235 234 234 233
310 307 305 303 302 299 297 296 294 293 292 291 291 290 289 288 288 287 286 284 282 280 278 276 274 273 268 264 262 255 249 243 241 240 237 234 235 237 235 232 232 232 231
312 310 308 307 305 303 300 298 296 295 294 293 293 291 290 289 288 287 286 284 281 279 277 275 272 271 268 263 260 256 252 246 241 239 236 234 234 234 233 233 233 232 231
314 313 311 310 309 308 306 304 302 299 297 296 294 293 292 290 289 287 285 283 281 278 276 274 272 268 265 262 258 254 251 248 245 242 237 234 233 234 233 233 233 233 232
316 315 314 313 312 310 309 307 305 303 300 298 296 294 292 291 289 288 286 284 281 278 275 273 270 267 264 260 257 254 250 247 246 243 239 236 234 234 235 234 233 233 233
318 317 317 316 315 313 311 310 308 306 304 301 299 297 295 292 290 289 287 284 282 279 275 271 268 265 263 259 255 252 249 247 246 244 241 238 236 235 234 234 233 233 233
321 320 319 318 317 315 314 313 311 309 307 304 302 299 297 295 292 290 288 285 282 279 276 271 266 263 260 258 254 252 251 248 245 243 242 240 238 236 235 234 235 234 234
323 322 321 320 319 318 317 315 313 311 309 307 304 301 299 297 294 291 288 285 282 278 275 271 267 262 258 256 254 252 250 248 246 243 241 240 240 238 236 235 235 235 235
324 324 323 321 320 319 318 317 315 314 312 310 307 305 303 300 296 293 290 287 283 279 275 271 267 262 259 256 253 251 248 246 245 244 242 240 240 239 237 236 236 235 235
327 326 325 323 323 322 320 319 318 316 315 313 311 309 306 303 300 296 292 289 285 282 277 272 267 262 259 255 252 250 247 245 245 244 242 241 240 240 239 237 236 236 236
329 328 327 327 325 324 322 321 321 319 317 315 313 311 309 306 302 298 295 292 288 284 280 275 269 263 258 254 251 248 247 245 244 243 242 241 240 240 240 239 238 237 237
333 331 330 329 327 326 324 324 324 322 321 319 317 315 313 310 306 301 297 294 291 287 284 278 271 264 258 254 251 247 247 245 244 243 242 241 241 240 240 239 238 237 237
336 335 333 331 330 328 327 327 327 326 325 323 322 320 317 314 310 306 302 299 296 292 287 280 272 265 258 255 252 248 247 245 244 243 242 241 240 240 239 238 238 238 237
339 337 336 334 333 332 331 331 330 330 329 328 326 324 322 319 316 311 308 305 301 296 290 283 274 264 257 253 251 249 246 244 243 242 241 241 240 239 238 237 237 237 237
341 340 338 337 336 335 334 334 333 333 333 332 331 329 327 325 321 317 314 310 306 301 296 286 276 267 258 254 252 249 246 242 240 239 239 239 239 239 237 236 236 236 236
343 341 340 339 339 338 337 337 337 337 337 336 335 334 332 330 328 325 321 316 311 307 303 293 280 269 258 254 251 248 245 240 237 236 236 236 236 237 237 236 235 235 235
344 343 342 341 341 341 341 341 341 340 341 340 340 339 337 336 335 333 329 324 320 316 312 303 287 271 260 254 250 247 244 240 237 235 235 235 235 235 235 235 234 234 233
345 345 344 343 343 344 344 344 344 345 345 345 345 344 344 343 343 343 341 338 334 331 326 317 302 281 265 256 251 247 243 239 234 233 233 234 234 234 233 232 231 231 231
347 347 346 345 345 346 347 347 348 349 350 349 350 351 350 350 350 349 349 347 343 339 336 328 316 297 276 262 252 245 239 236 233 232 231 231 229 229 229 230 228 229 229
349 348 348 348 348 349 350 350 351 352 353 354 355 357 357 357 356 356 356 355 353 350 346 339 331 317 294 270 249 239 235 232 230 230 227 227 227 227 227 228 227 227 228
350 350 350 350 351 351 352 353 354 355 356 358 358 359 1 3 3 2 3 2 359 356 354 349 343 336 316 286 258 244 236 233 231 227 223 224 225 225 225 225 226 226 227
350 351 352 352 352 353 354 355 356 357 359 1 2 4 6 7 8 9 9 9 9 7 5 6 4 359 343 311 276 256 241 235 231 226 223 223 226 227 226 226 227 228 228
Height
5849 5847 5846 5845 5843 5841 5839 5837 5835 5832 5830 5828 5826 5823 5821 5819 5816 5814 5811 5808 5806 5804 5803 5801 5801 5802 5803 5804 5806 5808 5810 5812 5814 5817 5820 5823 5826 5829 5832 5834 5837 5839 5842
5844 5842 5840 5838 5836 5834 5832 5830 5827 5824 5822 5819 5817 5815 5812 5810 5807 5805 5803 5800 5798 5796 5795 5794 5793 5793 5795 5796 5797 5799 5802 5804 5806 5809 5813 5816 5819 5822 5825 5828 5831 5834 5836
5839 5836 5834 5832 5830 5827 5825 5822 5819 5816 5813 5810 5808 5805 5802 5800 5798 5796 5794 5792 5790 5788 5787 5785 5785 5785 5786 5787 5788 5790 5793 5796 5798 5801 5805 5808 5812 5816 5819 5822 5825 5828 5831
5833 5830 5827 5825 5822 5819 5816 5813 5810 5807 5804 5800 5798 5795 5792 5790 5787 5785 5784 5782 5781 5780 5779 5778 5778 5777 5778 5778 5779 5780 5784 5786 5790 5793 5797 5801 5805 5809 5813 5816 5819 5822 5825
5827 5824 5821 5817 5814 5811 5807 5804 5801 5798 5794 5790 5787 5784 5781 5779 5776 5774 5773 5772 5771 5770 5769 5769 5769 5769 5769 5770 5771 5772 5775 5778 5781 5785 5788 5793 5797 5801 5805 5809 5813 5816 5819
5821 5817 5813 5810 5806 5802 5798 5794 5791 5787 5784 5780 5776 5773 5770 5768 5765 5763 5762 5761 5760 5759 5758 5759 5759 5759 5760 5761 5763 5764 5767 5769 5773 5776 5780 5784 5789 5792 5797 5801 5805 5809 5812
5814 5810 5805 5801 5797 5793 5789 5785 5781 5777 5773 5769 5766 5762 5759 5757 5754 5752 5750 5749 5748 5748 5747 5748 5749 5749 5750 5751 5753 5755 5758 5760 5764 5767 5771 5775 5779 5784 5789 5793 5797 5801 5806
5808 5803 5797 5793 5788 5784 5779 5774 5770 5767 5763 5759 5755 5751 5748 5745 5742 5740 5738 5736 5736 5736 5735 5736 5737 5738 5739 5740 5742 5745 5748 5751 5755 5758 5762 5766 5770 5775 5780 5785 5789 5794 5799
5801 5796 5790 5785 5780 5774 5770 5765 5760 5756 5752 5748 5744 5740 5736 5732 5729 5727 5724 5722 5722 5721 5721 5722 5723 5724 5726 5728 5730 5733 5737 5740 5744 5748 5752 5756 5760 5765 5770 5776 5781 5786 5791
5795 5789 5783 5777 5772 5766 5761 5756 5750 5746 5741 5736 5732 5727 5723 5720 5716 5713 5710 5708 5706 5705 5705 5706 5708 5709 5711 5713 5716 5720 5723 5728 5731 5735 5740 5745 5750 5755 5760 5766 5771 5776 5781
5788 5782 5776 5770 5764 5758 5752 5746 5741 5735 5730 5724 5719 5715 5710 5706 5702 5698 5695 5692 5690 5688 5687 5688 5690 5692 5695 5697 5700 5704 5708 5713 5717 5722 5727 5732 5738 5743 5749 5755 5761 5766 5771
5782 5775 5769 5762 5756 5750 5744 5737 5731 5725 5719 5713 5707 5702 5697 5692 5687 5682 5678 5675 5673 5671 5669 5670 5671 5673 5676 5680 5684 5687 5692 5696 5701 5707 5712 5719 5724 5730 5736 5743 5749 5755 5761
5776 5769 5762 5755 5749 5742 5735 5728 5722 5715 5708 5701 5695 5689 5682 5676 5671 5666 5661 5657 5655 5653 5651 5651 5652 5654 5658 5661 5665 5669 5674 5679 5685 5691 5697 5703 5709 5715 5722 5729 5736 5742 5749
5769 5762 5755 5748 5741 5734 5727 5720 5713 5705 5698 5690 5683 5675 5668 5661 5655 5649 5645 5641 5638 5636 5634 5633 5634 5636 5639 5643 5646 5651 5656 5661 5667 5673 5680 5687 5694 5700 5707 5714 5721 5729 5735
5764 5756 5749 5741 5734 5726 5719 5711 5703 5695 5687 5679 5671 5663 5655 5648 5641 5635 5630 5626 5623 5620 5618 5616 5616 5618 5621 5624 5628 5633 5638 5644 5650 5656 5662 5669 5677 5684 5691 5698 5706 5714 5721
5758 5750 5742 5734 5726 5719 5711 5702 5694 5685 5677 5668 5659 5651 5643 5635 5628 5622 5617 5613 5609 5605 5602 5600 5600 5601 5604 5607 5611 5615 5621 5627 5633 5639 5645 5652 5659 5667 5675 5683 5691 5699 5707
5752 5744 5736 5727 5719 5711 5703 5694 5685 5676 5667 5657 5648 5640 5631 5624 5617 5611 5605 5600 5596 5592 5588 5586 5586 5587 5589 5592 5596 5600 5605 5611 5617 5623 5629 5635 5643 5651 5659 5667 5675 5684 5692
5747 5738 5730 5721 5713 5704 5695 5686 5677 5668 5658 5649 5639 5630 5622 5614 5607 5600 5595 5589 5584 5580 5577 5574 5574 5574 5576 5579 5583 5586 5591 5596 5602 5608 5614 5621 5628 5635 5643 5652 5660 5669 5678
5742 5733 5724 5716 5707 5698 5689 5680 5670 5661 5651 5641 5631 5622 5614 5606 5598 5591 5585 5580 5575 5571 5568 5565 5564 5565 5567 5569 5572 5576 5580 5585 5590 5596 5601 5608 5614 5622 5630 5638 5647 5655 5662
5737 5728 5720 5711 5702 5693 5684 5674 5664 5654 5644 5635 5625 5616 5607 5599 5591 5584 5578 5573 5568 5564 5561 5559 5558 5558 5560 5562 5564 5567 5571 5575 5580 5586 5591 5597 5603 5608 5616 5624 5632 5640 5648
5733 5724 5715 5706 5697 5688 5679 5669 5659 5649 5639 5629 5620 5610 5601 5593 5586 5579 5573 5567 5563 5559 5557 5554 5553 5553 5555 5556 5558 5561 5564 5567 5572 5576 5582 5587 5592 5598 5605 5612 5620 5627 5635
5730 5720 5711 5702 5693 5684 5675 5665 5655 5645 5635 5625 5616 5607 5598 5590 5583 5576 5570 5565 5560 5557 5554 5552 5551 5551 5551 5552 5554 5556 5559 5562 5565 5570 5574 5579 5584 5590 5595 5602 5609 5616 5624
5726 5717 5708 5699 5690 5681 5671 5662 5652 5642 5632 5623 5613 5604 5596 5588 5581 5574 5569 5564 5560 5556 5553 5551 5550 5549 5549 5549 5551 5553 5555 5558 5561 5564 5568 5573 5578 5583 5588 5594 5600 5606 5614
5723 5714 5705 5696 5687 5678 5669 5659 5650 5640 5630 5621 5612 5603 5595 5588 5581 5574 5569 5564 5560 5556 5553 5551 5549 5548 5547 5547 5548 5550 5552 5555 5558 5561 5564 5568 5572 5577 5582 5587 5592 5598 5605
5721 5712 5703 5694 5685 5676 5667 5658 5648 5639 5630 5621 5612 5604 5596 5589 5582 5576 5570 5565 5561 5557 5554 5551 5550 5548 5548 5548 5548 5549 5550 5553 5555 5558 5561 5564 5568 5572 5576 5581 5585 5591 5597
5718 5709 5701 5692 5683 5675 5666 5657 5648 5639 5630 5622 5613 5605 5598 5591 5584 5578 5572 5567 5562 5558 5555 5553 5551 5549 5548 5548 5548 5548 5549 5551 5553 5555 5558 5561 5564 5567 5571 5575 5579 5584 5589